Vorticity
7 2 1 8 33 8 11 7 14 11 9 6 6 8 9 5 7 7 7 7 6 2 8 8 2 6 9 9 5 9 7 4
9 3 19 19 33 11 11 8 6 4 4 9 4 8 6 7 9 12 10 12 8 8 5 8 11 12 19 16 16 16 21 29
15 14 -7 -12 21 25 2 4 4 8 7 4 5 5 5 8 10 8 6 10 9 6 11 10 8 5 3 4 9 18 14 12
-15 14 5 -11 19 13 -3 7 5 1 3 2 5 8 11 9 7 10 9 11 12 13 7 7 11 16 20 20 11 8 11 14
-2 0 9 1 4 12 10 2 6 1 4 6 10 8 8 8 10 13 15 9 6 12 13 6 5 0 2 -2 6 11 9 11
-4 1 2 8 14 4 4 7 4 4 3 7 7 9 8 9 12 9 10 9 7 8 6 3 5 7 9 12 15 9 7 11
-0 3 8 1 10 16 6 5 2 7 5 8 8 6 8 9 10 8 5 5 6 4 5 6 8 4 9 13 11 9 8 8
5 6 7 6 3 10 8 8 10 7 9 8 5 8 8 6 5 6 6 5 5 7 9 9 7 8 11 9 7 4 6 6
12 11 10 17 8 6 10 9 5 8 6 7 6 5 6 7 8 7 6 9 10 10 11 10 7 12 9 7 6 5 7 7
5 5 5 15 -2 13 9 9 8 7 6 4 5 4 7 7 9 8 9 9 8 8 8 7 10 8 7 6 6 9 7 7
7 16 15 6 12 10 13 7 7 4 4 2 4 7 7 8 7 8 8 9 8 7 8 9 9 7 6 6 7 7 9 9
23 10 10 18 9 9 7 6 5 4 7 10 6 10 9 6 6 6 7 8 7 6 8 10 8 7 7 8 7 7 7 8
3 3 11 12 9 6 8 6 8 9 7 4 8 7 4 2 5 5 7 7 7 8 8 9 9 7 8 9 8 8 12 12
6 15 10 11 6 7 5 5 4 10 7 11 -1 6 5 3 5 4 7 7 7 7 7 8 8 10 12 12 12 13 9 6
12 7 4 10 6 5 6 5 5 15 12 4 10 2 4 3 5 4 7 6 8 7 8 7 9 13 13 13 10 6 5 6
5 18 11 5 6 13 5 7 6 3 -5 -7 12 21 2 9 6 6 8 6 9 8 6 9 13 13 12 11 6 15 22 16
3 7 1 0 -2 -0 -1 3 6 16 6 -1 7 20 8 -5 7 7 8 6 10 7 7 12 15 12 12 7 5 9 9 5
2 5 -1 6 22 17 -1 3 2 6 9 11 14 16 2 4 6 9 7 8 7 7 9 14 13 10 8 6 6 8 6 5
15 2 6 1 4 5 10 5 7 7 6 8 10 12 9 12 12 8 8 7 7 9 9 16 7 3 3 4 4 7 11 7
Height
5789 5793 5796 5796 5795 5799 5803 5811 5815 5819 5823 5824 5826 5828 5829 5830 5831 5832 5834 5835 5835 5835 5834 5834 5833 5832 5831 5830 5828 5827 5825 5823
5782 5786 5789 5789 5790 5792 5799 5806 5810 5814 5817 5819 5821 5823 5825 5825 5826 5827 5829 5830 5831 5830 5830 5830 5828 5828 5827 5825 5824 5823 5821 5818
5776 5780 5783 5783 5785 5786 5793 5800 5806 5809 5812 5814 5817 5819 5820 5820 5821 5823 5825 5825 5826 5827 5826 5825 5825 5824 5823 5822 5821 5819 5817 5815
5768 5772 5776 5781 5781 5785 5790 5797 5801 5804 5806 5810 5814 5814 5814 5816 5817 5818 5820 5821 5821 5822 5821 5821 5820 5820 5820 5818 5817 5816 5815 5812
5760 5766 5772 5778 5780 5782 5787 5794 5798 5798 5801 5806 5808 5809 5811 5812 5813 5814 5816 5817 5817 5818 5817 5817 5817 5817 5816 5815 5813 5813 5811 5809
5755 5762 5769 5772 5775 5779 5784 5789 5792 5794 5797 5801 5802 5805 5807 5808 5811 5811 5813 5813 5814 5814 5814 5813 5813 5812 5812 5811 5810 5809 5808 5806
5748 5756 5761 5767 5772 5776 5781 5784 5786 5790 5794 5796 5799 5802 5803 5805 5808 5809 5809 5810 5810 5810 5810 5810 5809 5808 5808 5806 5806 5805 5804 5803
5741 5750 5757 5763 5768 5772 5776 5779 5782 5786 5790 5792 5796 5798 5800 5803 5806 5806 5806 5806 5806 5806 5806 5806 5805 5804 5804 5802 5801 5802 5802 5800
5736 5745 5753 5758 5762 5766 5771 5774 5778 5782 5785 5789 5792 5794 5797 5799 5802 5803 5801 5802 5802 5801 5801 5802 5801 5800 5800 5799 5798 5799 5798 5797
5730 5738 5746 5750 5756 5762 5766 5769 5773 5777 5781 5784 5788 5791 5793 5796 5798 5799 5798 5797 5797 5797 5798 5797 5796 5796 5796 5795 5794 5795 5795 5793
5722 5732 5738 5745 5750 5754 5758 5763 5769 5772 5776 5781 5784 5787 5789 5791 5794 5794 5793 5793 5793 5794 5794 5793 5792 5792 5792 5791 5790 5789 5790 5789
5719 5726 5731 5736 5743 5748 5752 5759 5765 5769 5773 5776 5780 5783 5784 5787 5789 5790 5789 5789 5789 5790 5789 5789 5789 5788 5788 5787 5786 5784 5785 5786
5715 5719 5724 5731 5738 5743 5750 5757 5761 5764 5767 5771 5775 5778 5780 5782 5784 5785 5785 5785 5785 5786 5785 5785 5785 5784 5783 5782 5782 5781 5780 5781
5706 5711 5719 5727 5734 5740 5746 5752 5756 5759 5763 5767 5771 5774 5775 5777 5779 5780 5781 5781 5781 5782 5781 5781 5781 5780 5779 5778 5777 5776 5775 5776
5702 5708 5715 5722 5729 5735 5742 5748 5751 5754 5758 5762 5766 5768 5770 5772 5774 5776 5776 5777 5777 5777 5776 5775 5775 5774 5774 5773 5773 5772 5771 5771
5698 5705 5711 5718 5725 5731 5736 5741 5745 5749 5752 5757 5760 5761 5763 5766 5768 5770 5771 5772 5772 5772 5770 5770 5770 5769 5770 5769 5769 5767 5766 5766
5691 5698 5704 5711 5719 5726 5731 5735 5739 5743 5747 5750 5754 5756 5759 5761 5762 5764 5765 5766 5767 5766 5765 5765 5765 5765 5765 5765 5765 5764 5763 5763
5685 5691 5699 5705 5712 5718 5724 5728 5730 5736 5740 5744 5748 5750 5752 5755 5756 5758 5759 5760 5761 5760 5760 5760 5761 5761 5761 5761 5762 5761 5760 5759
5683 5687 5694 5700 5705 5711 5715 5720 5726 5729 5733 5737 5740 5743 5745 5748 5750 5751 5752 5753 5754 5754 5755 5755 5756 5757 5757 5757 5758 5756 5755 5755